Philip Billard Municipal Airport
KTOP : rendu visible

Aérodrome :











RETROUVEZ-NOUS SUR...

 
LOGIN :

S'inscrire | Disclaimer

   EN    FR    IT 

 









Légende :    VFR   VFR Marginal   IFR   IFR Intensif   IFR Très Intensif
Visi : 
Plafond : 
>= 8 km
>= 3000ft
5 à 8 km
1000 à 3000 ft
1500m à 5 km
500 à 1000 ft
800 à 1500m
200 à 500 ft
< 800m
< 200 ft
Symboles :   Orages  Brouillard  Fortes neiges  Fortes précipitations  Vent > 20 kt






- Altitude de l'aérodrome : 881 ft


KTOP - Philip Billard Municipal

DERNIER METAR :
  • 290853Z AUTO 27009KT 10SM CLR 08/02 A2985 RMK AO2 SLP105 T00830017 53017

METARs EXPIRÉS :
  • 290753Z AUTO 27010G19KT 10SM FEW120 08/02 A2982 RMK AO2 SLP097 T00830022
  • 290653Z AUTO 27011G21KT 10SM FEW045 08/02 A2981 RMK AO2 SLP093 T00830017

TAF KTOP
Valide du 29 à 09h jusqu'au 30 à 06h UTC


290902Z 2909/3006 27011KT P6SM SKC



MET'MAP, la Météo Aéronautique d'un coup d'oeil ! - Copyright ORBIFLY Décembre 2007 - Disclaimer

ORBIFLY MET'MAP TEAM :

Programmation & Développement : Alexandra Zaïnal
Sur une idée originale de : Baudouin d'Aumeries
Assistance à la programmation : Marc-Olivier Méhu
Soutien technique & logistique : Manuel Goepfert

Contact : metmap@orbifly.com




SOURCES & CREDITS :

   NOAA       Earth
Advisory